[[{"header":{"parameterUnit":"m.s-1","parameterCategory":1,"la1":30.2991,"la2":30.254,"lo1":-89.0895,"lo2":-89.0444,"dy":0.0017,"dx":0.0017,"nx":28,"ny":28,"refTime":"2024-10-20T09:00:00:Z","depth":0,"parameterNumber":2,"parameterNumberName":"U-component_of_WINDS"},"data":[0,0,0,0,0,0,0,0,0,0,0,0,0,0,0,0,0,0,0,0,0,0,0,0,0,0,0,0,0,0,0,0,0,0,0,0,0,0,0,0,0,0,0,0,0,0,0,0,0,0,0,0,0,0,0,0,0,0,-3.2756,-3.2755,0,-3.2709,-3.2708,-3.2708,-3.2626,-3.2625,-3.2623,-3.2622,-3.2576,-3.2576,-3.2576,0,0,0,0,0,0,0,0,0,0,0,0,0,-3.2778,-3.2778,-3.2756,-3.2755,-3.2755,-3.2709,-3.2708,-3.2708,-3.2627,-3.2625,-3.2623,-3.2621,-3.2576,-3.2576,-3.2576,0,0,0,0,0,0,0,0,0,0,0,0,0,-3.2754,-3.2778,-3.2756,-3.2709,-3.2704,-3.2709,-3.2708,-3.2708,-3.2627,-3.2625,-3.2622,-3.262,-3.2575,-3.2576,-3.2576,-3.2624,0,0,-3.2577,-3.2577,0,0,0,0,0,0,0,0,-3.2755,-3.2753,-3.2716,-3.2712,-3.2707,-3.2671,-3.2699,-3.268,-3.2628,-3.2656,-3.2622,-3.2619,-3.2609,-3.2607,-3.2603,-3.2622,-3.262,-3.2577,-3.2577,-3.2577,-3.2577,0,0,0,0,0,0,0,-3.2757,-3.2754,-3.2737,-3.2716,-3.271,-3.2691,-3.2685,-3.2695,-3.2646,-3.2654,-3.2648,-3.2643,-3.2606,-3.2603,-3.2601,-3.2619,-3.2577,-3.2577,-3.2577,-3.2578,-3.2677,-3.2679,0,0,0,0,0,0,-3.2765,-3.2756,-3.2739,-3.2736,-3.2726,-3.2692,-3.2685,-3.2685,-3.2646,-3.2638,-3.2645,-3.264,-3.2604,-3.2601,-3.2599,-3.2654,-3.2577,-3.2578,-3.2578,-3.2674,-3.2677,-3.268,0,0,0,0,0,0,-3.2766,-3.2764,-3.2741,-3.2744,-3.274,-3.2694,-3.2694,-3.2685,-3.2682,-3.264,-3.2631,-3.265,-3.2602,-3.2599,-3.2619,-3.2651,-3.2578,-3.2578,-3.2671,-3.2675,-3.2679,-3.2764,0,0,0,0,0,0,-3.2767,-3.2765,-3.2782,-3.2745,-3.274,-3.276,-3.2696,-3.2686,-3.2682,-3.2674,-3.2642,-3.2635,-3.26,-3.2619,-3.2619,-3.265,-3.2578,-3.2668,-3.2673,-3.2677,-3.2758,-3.277,-3.278,0,0,0,0,0,-3.2768,-3.2808,-3.2783,-3.2782,-3.276,-3.2762,-3.2759,-3.2718,-3.2685,-3.2703,-3.2676,-3.2636,-3.2648,-3.2621,-3.2621,-3.2653,-3.2666,-3.2672,-3.2677,-3.2753,-3.2767,-3.278,0,0,0,0,0,0,-3.285,-3.2802,-3.2775,-3.2804,-3.2788,-3.2749,-3.2769,-3.2734,-3.2728,-3.2721,-3.267,-3.2663,-3.269,-3.2673,-3.2645,-3.2698,-3.2651,-3.2656,-3.2708,-3.2722,-3.2733,-3.2737,-3.2578,0,0,0,0,0,-3.2872,-3.2877,-3.2835,-3.2865,-3.2858,-3.2815,-3.2814,-3.2784,-3.2765,-3.2758,-3.2733,-3.2717,-3.2717,-3.2718,-3.2716,-3.2755,-3.2747,-3.2777,-3.2788,-3.2797,-3.2803,-3.2824,-3.2837,-3.2698,-3.2698,-3.2698,0,0,-3.2916,-3.2891,-3.2897,-3.2881,-3.2864,-3.2872,-3.281,-3.282,-3.2825,-3.276,-3.2777,-3.2758,-3.2737,-3.2767,-3.2779,-3.2754,-3.284,-3.2804,-3.2812,-3.2813,-3.2831,-3.2844,-3.2856,-3.2702,-3.2701,-3.27,0,0,-3.3001,-3.2982,-3.3005,-3.2991,-3.2967,-3.2939,-3.2945,-3.2911,-3.2896,-3.2912,-3.2864,-3.2869,-3.287,-3.2858,-3.2852,-3.2934,-3.2897,-3.2934,-3.2993,-3.3014,-3.3025,-3.3035,-3.3065,-3.3077,-3.294,-3.294,-3.2941,0,-3.306,-3.3068,-3.3022,-3.3035,-3.303,-3.2971,-3.2996,-3.2984,-3.2961,-3.2959,-3.2931,-3.2932,-3.2914,-3.2941,-3.2961,-3.2958,-3.2964,-3.2938,-3.3027,-3.3036,-3.3044,-3.3073,-3.3085,-3.2945,-3.2945,-3.2944,-3.2944,0,-3.3142,-3.3149,-3.3171,-3.315,-3.3147,-3.3166,-3.3124,-3.3127,-3.3097,-3.3072,-3.309,-3.3066,-3.3059,-3.3062,-3.3033,-3.3086,-3.3071,-3.3036,-3.2987,-3.3063,-3.3089,-3.31,-3.2952,-3.295,-3.2949,-3.2948,0,0,-3.3278,-3.3232,-3.3241,-3.3232,-3.3202,-3.3206,-3.3223,-3.3215,-3.322,-3.3206,-3.322,-3.3223,-3.319,-3.3183,-3.3152,-3.317,-3.3239,-3.3133,-3.3132,-3.3155,-3.3297,-3.3325,-3.3339,-3.3214,-3.3216,-3.3218,-3.33,0,-3.3358,-3.3383,-3.3343,-3.3378,-3.3384,-3.3329,-3.3343,-3.3327,-3.3305,-3.3307,-3.3282,-3.3286,-3.3242,-3.3237,-3.3253,-3.3227,-3.3267,-3.3221,-3.3228,-3.3229,-3.3236,-3.3352,-3.3381,-3.346,-3.331,-3.3311,-3.3312,0,-3.3454,-3.3446,-3.3482,-3.3451,-3.3452,-3.3466,-3.3456,-3.3459,-3.344,-3.3422,-3.3416,-3.3379,-3.3394,-3.3347,-3.3368,-3.3337,-3.3338,-3.3326,-3.3328,-3.3328,-3.3276,-3.3357,-3.3483,-3.3496,-3.3328,-3.3327,-3.3325,0,-3.3552,-3.3549,-3.357,-3.3564,-3.3528,-3.3539,-3.3525,-3.3504,-3.3502,-3.3494,-3.3493,-3.3487,-3.3484,-3.3481,-3.3444,-3.3413,-3.3471,-3.342,-3.3458,-3.3459,-3.3473,-3.3473,-3.3604,-3.3472,-3.3472,-3.3472,-3.3471,0,-3.3646,-3.367,-3.3614,-3.3627,-3.3653,-3.3607,-3.3635,-3.3615,-3.3597,-3.3606,-3.3557,-3.3568,-3.3517,-3.3523,-3.3494,-3.3517,-3.3516,-3.3503,-3.3495,-3.3508,-3.351,-3.3508,-3.3503,-3.3475,-3.3474,-3.3473,-3.3473,0,-3.3759,-3.3722,-3.3742,-3.3706,-3.3698,-3.3719,-3.3689,-3.3701,-3.3675,-3.3688,-3.3688,-3.3648,-3.3652,-3.3614,-3.3611,-3.3591,-3.3629,-3.361,-3.3635,-3.363,-3.3671,-3.3668,-3.3806,-3.3823,-3.3679,-3.3681,-3.3682,0,-3.3822,-3.384,-3.3806,-3.3809,-3.3797,-3.3802,-3.38,-3.3755,-3.3756,-3.3737,-3.3751,-3.3751,-3.3748,-3.3757,-3.3728,-3.3725,-3.3708,-3.3756,-3.3707,-3.372,-3.371,-3.3711,-3.3713,-3.3767,-3.3769,-3.377,-3.3771,0,-3.3939,-3.392,-3.3919,-3.3912,-3.3911,-3.3904,-3.3894,-3.3899,-3.385,-3.3853,-3.3856,-3.3854,-3.3851,-3.3852,-3.3844,-3.383,-3.3794,-3.3787,-3.3796,-3.381,-3.3824,-3.3819,-3.3665,-3.3784,-3.3783,-3.3782,-3.3781,-3.3781,-3.403,-3.4043,-3.4022,-3.4024,-3.4011,-3.4003,-3.4012,-3.3988,-3.3989,-3.3983,-3.3956,-3.3964,-3.3946,-3.3932,-3.3922,-3.3928,-3.3905,-3.3917,-3.3921,-3.3925,-3.3933,-3.3822,-3.3926,-3.3926,-3.3926,-3.3925,-3.3925,0,-3.4145,-3.4129,-3.413,-3.4117,-3.4119,-3.4083,-3.407,-3.4074,-3.4082,-3.4067,-3.4066,-3.407,-3.4071,-3.4043,-3.404,-3.4051,-3.4035,-3.4052,-3.4052,-3.405,-3.3954,-3.3947,-3.4066,-3.4066,-3.4066,-3.4066,-3.4066,-3.4066,-3.4205,-3.4227,-3.4206,-3.4222,-3.4205,-3.4212,-3.4208,-3.4201,-3.419,-3.4197,-3.4197,-3.4178,-3.4159,-3.4155,-3.4155,-3.4146,-3.4149,-3.4172,-3.4159,-3.407,-3.4056,-3.4043,-3.4037,-3.4173,-3.4173,-3.4254,-3.4255,-3.4256]},{"header":{"parameterUnit":"m.s-1","parameterCategory":1,"la1":30.2991,"la2":30.254,"lo1":-89.0895,"lo2":-89.0444,"dy":0.0017,"dx":0.0017,"nx":28,"ny":28,"refTime":"2024-10-20T09:00:00:Z","depth":0,"parameterNumber":3,"parameterNumberName":"V-component_of_WINDS"},"data":[0,0,0,0,0,0,0,0,0,0,0,0,0,0,0,0,0,0,0,0,0,0,0,0,0,0,0,0,0,0,0,0,0,0,0,0,0,0,0,0,0,0,0,0,0,0,0,0,0,0,0,0,0,0,0,0,0,0,-2.3165,-2.3165,0,-2.3191,-2.3192,-2.3192,-2.3161,-2.316,-2.3159,-2.3158,-2.3183,-2.3185,-2.3186,0,0,0,0,0,0,0,0,0,0,0,0,0,-2.3086,-2.3087,-2.3165,-2.3165,-2.3165,-2.3191,-2.3192,-2.3192,-2.3161,-2.316,-2.3158,-2.3157,-2.3182,-2.3184,-2.3186,0,0,0,0,0,0,0,0,0,0,0,0,0,-2.3117,-2.3088,-2.3165,-2.3153,-2.3153,-2.3191,-2.3192,-2.3192,-2.3162,-2.316,-2.3158,-2.3156,-2.3182,-2.3184,-2.3187,-2.3237,0,0,-2.3195,-2.3196,0,0,0,0,0,0,0,0,-2.3115,-2.312,-2.3155,-2.3154,-2.3153,-2.3171,-2.3173,-2.3207,-2.3162,-2.3158,-2.3158,-2.3156,-2.318,-2.3183,-2.3192,-2.3239,-2.324,-2.3195,-2.3197,-2.3198,-2.3198,0,0,0,0,0,0,0,-2.3113,-2.3118,-2.3175,-2.3155,-2.3154,-2.3146,-2.3149,-2.3179,-2.3178,-2.3158,-2.3156,-2.316,-2.318,-2.3189,-2.3192,-2.324,-2.3195,-2.3197,-2.3199,-2.32,-2.3331,-2.3333,0,0,0,0,0,0,-2.3112,-2.3117,-2.3174,-2.3176,-2.313,-2.3149,-2.3152,-2.3167,-2.3178,-2.3178,-2.3161,-2.3158,-2.3185,-2.3189,-2.3193,-2.3254,-2.3198,-2.32,-2.3202,-2.3329,-2.3331,-2.3333,0,0,0,0,0,0,-2.3111,-2.3118,-2.3173,-2.3146,-2.3152,-2.3152,-2.317,-2.3169,-2.3178,-2.318,-2.318,-2.3171,-2.3184,-2.3189,-2.3227,-2.3255,-2.3201,-2.3204,-2.3327,-2.333,-2.3332,-2.3377,0,0,0,0,0,0,-2.3109,-2.3117,-2.3137,-2.3147,-2.3154,-2.3208,-2.3171,-2.317,-2.3183,-2.3179,-2.319,-2.319,-2.3183,-2.3223,-2.323,-2.3257,-2.3206,-2.3324,-2.3328,-2.3331,-2.3373,-2.3381,-2.3387,0,0,0,0,0,-2.3106,-2.3148,-2.3138,-2.3146,-2.3179,-2.321,-2.3214,-2.3206,-2.3185,-2.3205,-2.3206,-2.3189,-2.325,-2.3227,-2.3234,-2.3263,-2.3323,-2.3327,-2.3331,-2.337,-2.3379,-2.3387,0,0,0,0,0,0,-2.3141,-2.3149,-2.3139,-2.3185,-2.3197,-2.3204,-2.3229,-2.3216,-2.3234,-2.323,-2.3219,-2.3221,-2.3262,-2.3266,-2.324,-2.3313,-2.3283,-2.3289,-2.331,-2.3319,-2.3326,-2.3325,-2.3208,0,0,0,0,0,-2.3154,-2.3179,-2.3184,-2.3225,-2.3231,-2.3229,-2.3242,-2.3235,-2.3247,-2.3252,-2.3256,-2.3267,-2.3289,-2.3304,-2.3324,-2.3372,-2.3375,-2.3395,-2.3403,-2.3409,-2.3415,-2.3442,-2.3452,-2.3347,-2.3347,-2.3347,0,0,-2.3182,-2.3189,-2.3205,-2.3232,-2.3241,-2.3267,-2.3234,-2.3262,-2.3281,-2.3256,-2.3293,-2.3296,-2.3308,-2.3352,-2.3371,-2.3356,-2.3444,-2.3414,-2.3419,-2.3422,-2.3448,-2.3457,-2.3466,-2.335,-2.335,-2.3349,0,0,-2.3246,-2.3253,-2.3289,-2.3298,-2.3312,-2.331,-2.3318,-2.3328,-2.3329,-2.3366,-2.3348,-2.3369,-2.3407,-2.3417,-2.3427,-2.3494,-2.348,-2.3501,-2.354,-2.3567,-2.3575,-2.3582,-2.3608,-2.3617,-2.3506,-2.3506,-2.3506,0,-2.3278,-2.3318,-2.3308,-2.3339,-2.3351,-2.333,-2.3365,-2.3374,-2.3393,-2.3402,-2.3385,-2.3432,-2.3439,-2.3485,-2.3502,-2.351,-2.352,-2.3501,-2.3575,-2.3582,-2.3588,-2.3613,-2.3623,-2.3509,-2.3508,-2.3508,-2.3508,0,-2.3358,-2.3385,-2.3411,-2.3432,-2.3447,-2.348,-2.3475,-2.3491,-2.3483,-2.3483,-2.3521,-2.3527,-2.3549,-2.3559,-2.355,-2.3605,-2.3595,-2.3576,-2.3546,-2.3601,-2.3624,-2.3633,-2.3512,-2.3512,-2.3511,-2.351,0,0,-2.3446,-2.3461,-2.3471,-2.3481,-2.3494,-2.3514,-2.3546,-2.3568,-2.3583,-2.3596,-2.3623,-2.3655,-2.3638,-2.3649,-2.3641,-2.3664,-2.3719,-2.3642,-2.3643,-2.3658,-2.3781,-2.3797,-2.3808,-2.3709,-2.371,-2.3712,-2.3781,0,-2.3512,-2.3568,-2.3561,-2.3615,-2.364,-2.362,-2.3647,-2.3658,-2.3659,-2.368,-2.368,-2.3704,-2.3678,-2.3685,-2.3707,-2.3708,-2.3744,-2.3703,-2.3735,-2.3736,-2.3735,-2.382,-2.3837,-2.3902,-2.379,-2.3791,-2.3792,0,-2.3597,-2.3615,-2.3672,-2.3682,-2.3692,-2.3718,-2.3738,-2.3758,-2.377,-2.3768,-2.3781,-2.3769,-2.38,-2.3768,-2.3811,-2.3783,-2.3795,-2.3798,-2.38,-2.3805,-2.3769,-2.3829,-2.3923,-2.3933,-2.3806,-2.3805,-2.3804,0,-2.3658,-2.3696,-2.3736,-2.3744,-2.3756,-2.3775,-2.3781,-2.379,-2.3804,-2.3821,-2.383,-2.385,-2.3861,-2.3876,-2.387,-2.3847,-2.3915,-2.3882,-2.3916,-2.3916,-2.3933,-2.3933,-2.4032,-2.3937,-2.3937,-2.3937,-2.3937,0,-2.3734,-2.377,-2.3764,-2.3789,-2.3828,-2.3818,-2.3858,-2.3861,-2.387,-2.3895,-2.3876,-2.39,-2.3889,-2.3911,-2.3905,-2.3943,-2.3948,-2.3948,-2.3947,-2.3951,-2.3952,-2.3961,-2.3957,-2.3939,-2.3939,-2.3938,-2.3938,0,-2.3811,-2.3808,-2.385,-2.3858,-2.3861,-2.389,-2.3897,-2.392,-2.3918,-2.395,-2.3956,-2.3954,-2.398,-2.3974,-2.4001,-2.3998,-2.4046,-2.4038,-2.4043,-2.4042,-2.4077,-2.4075,-2.4188,-2.4203,-2.4096,-2.4097,-2.4098,0,-2.3861,-2.3888,-2.39,-2.3916,-2.3923,-2.3948,-2.3963,-2.3953,-2.3969,-2.3984,-2.4006,-2.4029,-2.4048,-2.409,-2.409,-2.4111,-2.4105,-2.4143,-2.4108,-2.4112,-2.4108,-2.4108,-2.4111,-2.4151,-2.4152,-2.4153,-2.4154,0,-2.395,-2.3948,-2.397,-2.3991,-2.4009,-2.4026,-2.404,-2.4054,-2.4045,-2.4064,-2.409,-2.4105,-2.4133,-2.4158,-2.4177,-2.4182,-2.4167,-2.4164,-2.4174,-2.418,-2.4183,-2.4184,-2.4064,-2.4162,-2.4162,-2.4161,-2.4161,-2.416,-2.4017,-2.4041,-2.4053,-2.4078,-2.4088,-2.4102,-2.4125,-2.4127,-2.4149,-2.4172,-2.4164,-2.4195,-2.4205,-2.423,-2.4238,-2.4261,-2.4247,-2.426,-2.4263,-2.4267,-2.4273,-2.4177,-2.4264,-2.4264,-2.4264,-2.4263,-2.4263,0,-2.4107,-2.4114,-2.4137,-2.4159,-2.4179,-2.4163,-2.4178,-2.4196,-2.4223,-2.4234,-2.4254,-2.4284,-2.4308,-2.431,-2.4332,-2.435,-2.4344,-2.4357,-2.4356,-2.4358,-2.4283,-2.4274,-2.4361,-2.4361,-2.4361,-2.4361,-2.4361,-2.4361,-2.4157,-2.4198,-2.4196,-2.4242,-2.4248,-2.4278,-2.4289,-2.4301,-2.4311,-2.4346,-2.4366,-2.4367,-2.4376,-2.4398,-2.4419,-2.4419,-2.4429,-2.4444,-2.4442,-2.4373,-2.4363,-2.4354,-2.4345,-2.4446,-2.4446,-2.4515,-2.4516,-2.4516]}]]